Weather History for Worcester, MA

Change the Weather History Date:

Friday, March 15, 2013

  Actual Average Record
Temperature  
Mean Temperature 26 °F 34 °F  
Max Temperature 36 °F 42 °F 81 °F (1990)
Min Temperature 16 °F 26 °F 2 °F (1993)
Degree Days  
Heating Degree Days 39 31  
Month to date heating degree days 464 494  
Since 1 July heating degree days 4901 5331  
Cooling Degree Days 0 0  
Month to date cooling degree days 0 0  
Year to date cooling degree days 0 0  
Moisture  
Dew Point 16 °F    
Average Humidity 58    
Maximum Humidity 85    
Minimum Humidity 31    
Precipitation  
Precipitation T in 0.13 in 1.26 in (1893)
Month to date precipitation 2.00 1.90  
Year to date precipitation 8.88 8.62  
Sea Level Pressure  
Sea Level Pressure 29.73 in    
Wind  
Wind Speed 14 mph (West)    
Max Wind Speed 26 mph    
Max Gust Speed 38 mph    
Visibility 8 miles    
Events Snow    
T = Trace of Precipitation, MM = Missing Value Source: NWS Daily Summary

Daily Weather History Graph

Daily Weather History Graph

Search for Another Location

Airport:

Trip Planner

Search our weather history database for the weather conditions in past years. The results will help you decide how hot, cold, wet, or windy it might be!

Date:

Astronomy

Mar. 15, 2013 Rise Set
Actual Time 6:59 AM EDT 6:54 PM EDT
Civil Twilight 6:31 AM EDT 7:22 PM EDT
Nautical Twilight 5:58 AM EDT 7:54 PM EDT
Astronomical Twilight 5:25 AM EDT 8:28 PM EDT
Moon 8:42 AM EDT (3/15) 11:10 PM EDT (3/15)
Length of Visible Light 12h 51m
Length of Day
11h 55m
Waxing Crescent, 15% of the Moon is Illuminated
Mar 15
Waxing Crescent
Mar 19
First Quarter
Mar 27
Full
Apr 3
Last Quarter
Apr 10
New

Hourly Weather History & Observations

Time (EDT) Temp. Windchill Dew Point Humidity Pressure Visibility Wind Dir Wind Speed Gust Speed Precip Events Conditions
12:54 AM 18.0 °F 6.1 °F 9.0 °F 68% 29.83 in 10.0 mi WNW 10.4 mph - N/A   Scattered Clouds
1:54 AM 19.0 °F 5.6 °F 9.0 °F 65% 29.84 in 10.0 mi NW 13.8 mph - N/A   Overcast
2:54 AM 19.9 °F 5.7 °F 7.0 °F 57% 29.83 in 10.0 mi NW 16.1 mph 25.3 mph N/A   Scattered Clouds
3:54 AM 19.9 °F 6.2 °F 5.0 °F 52% 29.82 in 10.0 mi NW 15.0 mph 33.4 mph N/A   Clear
4:54 AM 18.0 °F 6.9 °F 6.1 °F 60% 29.84 in 10.0 mi NNW 9.2 mph - N/A   Clear
5:54 AM 17.1 °F 6.6 °F 7.0 °F 65% 29.85 in 10.0 mi NW 8.1 mph - N/A   Clear
6:54 AM 16.0 °F 4.4 °F 6.1 °F 65% 29.86 in 10.0 mi WNW 9.2 mph - N/A   Clear
7:54 AM 17.1 °F 5.0 °F 7.0 °F 65% 29.86 in 10.0 mi WNW 10.4 mph - N/A   Clear
8:54 AM 19.9 °F 10.1 °F 6.1 °F 55% 29.86 in 10.0 mi WNW 8.1 mph - N/A   Clear
9:54 AM 24.1 °F 12.5 °F 5.0 °F 44% 29.85 in 10.0 mi West 12.7 mph - N/A   Clear
10:54 AM 26.1 °F 15.6 °F 3.9 °F 39% 29.83 in 10.0 mi West 11.5 mph 19.6 mph N/A   Partly Cloudy
11:54 AM 28.0 °F 15.7 °F 1.9 °F 33% 29.80 in 10.0 mi West 17.3 mph 20.7 mph N/A   Overcast
12:54 PM 30.9 °F 19.8 °F 3.9 °F 32% 29.78 in 10.0 mi WNW 16.1 mph - N/A   Mostly Cloudy
1:54 PM 33.1 °F 23.9 °F 8.1 °F 35% 29.73 in 10.0 mi WSW 12.7 mph - N/A   Mostly Cloudy
2:54 PM 35.1 °F 24.8 °F 12.0 °F 39% 29.70 in 10.0 mi SW 17.3 mph 21.9 mph N/A   Partly Cloudy
3:54 PM 36.0 °F 25.3 °F 12.9 °F 39% 29.68 in 10.0 mi WSW 19.6 mph 26.5 mph N/A   Overcast
4:54 PM 35.1 °F 23.5 °F 19.0 °F 52% 29.66 in 10.0 mi West 21.9 mph 28.8 mph N/A   Overcast
5:54 PM 34.0 °F 23.0 °F 21.9 °F 61% 29.66 in 10.0 mi WSW 18.4 mph 23.0 mph 0.00 in   Overcast
6:54 PM 34.0 °F 24.6 °F 21.9 °F 61% 29.66 in 10.0 mi West 13.8 mph - N/A   Overcast
7:32 PM 33.1 °F 22.6 °F 23.0 °F 66% 29.62 in 10.0 mi West 16.1 mph - N/A   Overcast
7:54 PM 33.1 °F 22.2 °F 24.1 °F 70% 29.67 in 10.0 mi WSW 17.3 mph - N/A   Overcast
8:54 PM 30.9 °F 20.7 °F 25.0 °F 79% 29.68 in 10.0 mi West 13.8 mph - 0.00 in   Mostly Cloudy
9:05 PM 30.9 °F 20.7 °F 25.0 °F 79% 29.63 in 10.0 mi West 13.8 mph 21.9 mph N/A   Partly Cloudy
9:49 PM 30.2 °F 18.9 °F 24.8 °F 80% 29.63 in 2.0 mi West 16.1 mph - 0.00 in Snow Light Snow
9:54 PM 30.0 °F 18.7 °F 26.1 °F 85% 29.68 in 1.0 mi West 16.1 mph 27.6 mph 0.00 in Snow Light Snow
10:18 PM 30.0 °F 20.5 °F 28.0 °F 92% 29.63 in 2.5 mi West 11.5 mph - 0.00 in Snow Light Snow
10:27 PM 30.0 °F 19.5 °F 27.0 °F 88% 29.64 in 4.0 mi West 13.8 mph - 0.00 in Snow Light Snow
10:38 PM 30.0 °F 18.7 °F 27.0 °F 88% 29.64 in 1.8 mi West 16.1 mph 23.0 mph 0.00 in Snow Light Snow
10:52 PM 30.2 °F 19.8 °F 26.6 °F 86% 29.64 in 2.0 mi West 13.8 mph - 0.00 in Snow Light Snow
10:53 PM 30.0 °F 19.5 °F 27.0 °F 88% 29.68 in 2.0 mi West 13.8 mph - 0.00 in Snow Light Snow
11:02 PM 30.0 °F 19.1 °F 27.0 °F 88% 29.64 in 7.0 mi West 15.0 mph - 0.00 in Snow Light Snow
11:12 PM 30.0 °F 19.5 °F 27.0 °F 88% 29.64 in 10.0 mi West 13.8 mph - 0.00 in   Mostly Cloudy
11:54 PM 28.9 °F 18.2 °F 26.1 °F 89% 29.69 in 10.0 mi West 13.8 mph - 0.00 in   Clear